Location: Newark
(51.3318°N, 0.0053°E)
Time: 22:05:38
(UTC+00:00)

Sep Motor Cover - Pass Details

Date: 15 December 2022
Orbit: 663 x 834 km, 71.0° (Epoch: 07 February)

Event Time Altitude Azimuth Distance (km) Brightness Sun altitude
Rises 18:22:34 0° 326° (NW) 3,291 10.1 -22.1°
Reaches altitude 10° 18:26:51 10° 359° (N) 2,399 9.0 -22.8°
Enters shadow 18:27:50 11° 9° (N) 2,316 8.8 -23.0°
